Location: Gloden
(48.4833°N, 15.3167°E)
Time: 21:53:10
(UTC+00:00)

IRIDIUM 106 - Pass Details

Date: 15 December 2019
Orbit: 776 x 779 km, 86.4° (Epoch: 28 January)

Event Time Altitude Azimuth Distance (km) Brightness Sun altitude
Rises 05:14:40 0° 354° (N) 3,275 7.3 -13.9°
Reaches altitude 10° 05:17:02 10° 354° (N) 2,342 6.6 -13.5°
Maximum altitude 05:22:16 77° 269° (W) 803 4.3 -12.7°
Drops below altitude 10° 05:27:28 10° 184° (S) 2,322 7.0 -11.9°
Sets 05:29:48 0° 183° (S) 3,245 7.8 -11.5°
